Weather History for Peru, IN

Change the Weather History Date:

Saturday, July 20, 2013

  Actual Average Record
Temperature  
Mean Temperature 78 °F -  
Max Temperature 86 °F 81 °F 97 °F (2011)
Min Temperature 71 °F 64 °F 55 °F (2007)
Cooling Degree Days 13    
Growing Degree Days 28 (Base 50)    
Moisture  
Dew Point 73 °F    
Average Humidity 89    
Maximum Humidity 100    
Minimum Humidity 69    
Precipitation  
Precipitation 0.11 in - - ()
Sea Level Pressure  
Sea Level Pressure 29.87 in    
Wind  
Wind Speed 11 mph (WSW)    
Max Wind Speed 16 mph    
Max Gust Speed -    
Visibility 9 miles    
Events Rain , Thunderstorm    
Averages and records for this station are not official NWS values.
T = Trace of Precipitation, MM = Missing Value Source: NWS Daily Summary

Daily Weather History Graph

Daily Weather History Graph

Search for Another Location

Airport:

Trip Planner

Search our weather history database for the weather conditions in past years. The results will help you decide how hot, cold, wet, or windy it might be!

Date:

Astronomy

Jul. 20, 2013 Rise Set
Actual Time 6:30 AM EDT 9:10 PM EDT
Civil Twilight 5:58 AM EDT 9:42 PM EDT
Nautical Twilight 5:19 AM EDT 10:22 PM EDT
Astronomical Twilight 4:33 AM EDT 11:07 PM EDT
Moon 7:13 PM EDT (7/20) 4:10 AM EDT (7/20)
Length of Visible Light 15h 43m
Length of Day
14h 39m
Waxing Gibbous, 93% of the Moon is Illuminated
Jul 20
Waxing Gibbous
Jul 22
Full
Jul 29
Last Quarter
Aug 6
New
Aug 14
First Quarter

Hourly Weather History & Observations

Time (EDT) Temp. Heat Index Dew Point Humidity Pressure Visibility Wind Dir Wind Speed Gust Speed Precip Events Conditions
12:58 AM 78.6 °F - 73.0 °F 83% 29.85 in 10.0 mi SW 15.0 mph - N/A   Clear
1:58 AM 78.3 °F - 72.5 °F 82% 29.84 in 10.0 mi SW 15.0 mph - N/A   Clear
2:58 AM 78.3 °F - 72.1 °F 81% 29.83 in 10.0 mi SW 16.1 mph - N/A   Clear
3:58 AM 77.9 °F - 72.1 °F 82% 29.81 in 10.0 mi SW 15.0 mph - N/A   Partly Cloudy
4:36 AM 77.0 °F - 71.6 °F 83% 29.83 in 10.0 mi West 13.8 mph - N/A   Clear
4:58 AM 77.0 °F - 72.1 °F 85% 29.82 in 10.0 mi West 10.4 mph - N/A   Partly Cloudy
5:58 AM 76.1 °F - 71.8 °F 86% 29.82 in 10.0 mi WSW 10.4 mph - N/A   Clear
6:58 AM 75.4 °F - 72.0 °F 89% 29.83 in 10.0 mi WSW 10.4 mph - N/A   Partly Cloudy
7:58 AM 75.9 °F - 72.3 °F 89% 29.84 in 10.0 mi WSW 9.2 mph - N/A   Partly Cloudy
7:59 AM 75.2 °F - 71.6 °F 89% 29.85 in 9.0 mi WSW 10.4 mph - N/A Rain Light Rain
8:03 AM 75.2 °F - 73.4 °F 94% 29.86 in 1.5 mi West 9.2 mph - N/A Rain , Thunderstorm Rain
8:04 AM 75.2 °F - 73.4 °F 94% 29.86 in 1.8 mi West 9.2 mph - N/A Rain Rain
8:09 AM 75.2 °F - 73.4 °F 94% 29.86 in 1.0 mi WSW 8.1 mph - N/A Rain Light Rain
8:14 AM 75.2 °F - 73.4 °F 94% 29.86 in 1.8 mi West 5.8 mph - N/A Rain Light Rain
8:19 AM 75.2 °F - 73.4 °F 94% 29.86 in 9.0 mi WSW 8.1 mph - N/A Rain , Thunderstorm Light Rain
8:39 AM 75.2 °F - 73.4 °F 94% 29.86 in 7.0 mi WSW 5.8 mph - N/A Rain Light Rain
8:56 AM 75.2 °F - 73.4 °F 94% 29.87 in 7.0 mi West 9.2 mph - N/A Rain , Thunderstorm Light Thunderstorms and Rain
8:58 AM 75.2 °F - 73.4 °F 94% 29.87 in 10.0 mi West 9.2 mph - N/A Rain , Thunderstorm Light Thunderstorms and Rain
9:16 AM 75.2 °F - 73.4 °F 94% 29.88 in 10.0 mi West 12.7 mph - N/A   Partly Cloudy
9:39 AM 73.4 °F - 73.4 °F 100% 29.88 in 10.0 mi WSW 8.1 mph - N/A Thunderstorm Mostly Cloudy
9:58 AM 73.8 °F - 73.0 °F 98% 29.88 in 10.0 mi WSW 9.2 mph - 0.00 in Thunderstorm Scattered Clouds
10:40 AM 73.4 °F - 73.4 °F 100% 29.90 in 10.0 mi WSW 8.1 mph - N/A   Scattered Clouds
10:58 AM 74.1 °F - 73.0 °F 96% 29.89 in 10.0 mi WSW 8.1 mph - N/A   Clear
11:58 AM 77.0 °F - 73.2 °F 88% 29.89 in 10.0 mi West 9.2 mph - N/A   Partly Cloudy
12:58 PM 79.7 °F - 73.4 °F 81% 29.89 in 10.0 mi West 8.1 mph - N/A   Partly Cloudy
1:58 PM 79.3 °F - 74.1 °F 84% 29.89 in 10.0 mi SSW 11.5 mph - N/A   Scattered Clouds
2:58 PM 82.8 °F 89.2 °F 74.1 °F 75% 29.87 in 10.0 mi SW 5.8 mph - N/A   Partly Cloudy
3:58 PM 85.1 °F 92.6 °F 73.9 °F 69% 29.86 in 10.0 mi SW 5.8 mph - N/A   Partly Cloudy
4:58 PM 83.5 °F 89.7 °F 73.0 °F 71% 29.85 in 10.0 mi West 5.8 mph - N/A   Partly Cloudy
5:58 PM 82.6 °F 89.1 °F 74.5 °F 76% 29.86 in 10.0 mi SSW 12.7 mph - N/A   Partly Cloudy
6:13 PM 80.6 °F 85.4 °F 73.4 °F 79% 29.87 in 10.0 mi SW 11.5 mph - N/A   Mostly Cloudy
6:23 PM 80.6 °F 86.2 °F 75.2 °F 84% 29.87 in 10.0 mi SW 13.8 mph - N/A   Scattered Clouds
6:58 PM 80.4 °F 85.6 °F 74.7 °F 83% 29.85 in 10.0 mi SW 8.1 mph - N/A   Clear
7:58 PM 77.9 °F - 74.1 °F 88% 29.87 in 10.0 mi SW 5.8 mph - N/A   Clear
8:58 PM 76.1 °F - 74.1 °F 94% 29.91 in 10.0 mi SW 5.8 mph - N/A   Clear
9:58 PM 73.4 °F - 72.9 °F 98% 29.93 in 10.0 mi WSW 6.9 mph - N/A   Scattered Clouds
10:47 PM 71.6 °F - 71.6 °F 100% 29.93 in 10.0 mi SSW 2.3 mph - N/A   Partly Cloudy
10:58 PM 71.8 °F - 71.8 °F 100% 29.93 in 10.0 mi SW 3.5 mph - N/A   Partly Cloudy
11:58 PM 71.2 °F - 71.2 °F 100% 29.93 in 10.0 mi West 4.6 mph - N/A   Clear